Regional Weather Roundup
Issued by NWS

Home | Current Version | Previous Version | Graphics & Text | Print | Product List | Glossary On
Versions: 1 2 3 4 5 6 7 8 9 10 11 12 13 14 15 16 17 18 19 20 21 22 23 24 25 26 27 28 29 30 31 32 33 34 35 36 37 38 39 40 41 42 43 44 45 46 47 48 49 50
000
ASUS43 KLMK 260202
RWRKY
KENTUCKY REGIONAL WEATHER ROUNDUP
NATIONAL WEATHER SERVICE LOUISVILLE KY
1000 PM EDT WED MAY 25 2016

NOTE "FAIR" INDICATES FEW OR NO CLOUDS BELOW 12,000 FEET
WITH NO SIGNIFICANT WEATHER AND/OR OBSTRUCTIONS TO VISIBILITY.

KYZ001>023-026-027-061>063-070>075-260300-
WESTERN AND SOUTH CENTRAL KENTUCKY

CITY           SKY/WX    TMP DP  RH WIND       PRES   REMARKS
PADUCAH        MOCLDY    70  65  84 S9        30.04S
HENDERSON      CLOUDY    70  63  78 S16G23    30.02R
OWENSBORO      CLOUDY    69  66  90 S15       30.03F
HOPKINSVILLE   CLOUDY    66  66 100 SE2       30.07F
BOWLING GREEN  RAIN      68  66  93 S7        30.09F
GLASGOW        NOT AVBL
$$

KYZ024-025-028>034-038-045-046-053-260300-
NORTH CENTRAL KENTUCKY

CITY           SKY/WX    TMP DP  RH WIND       PRES   REMARKS
LOUISVILLE/SDF MOCLDY    73  61  65 S12       30.07R
LOUISVILLE/LOU CLOUDY    74  62  66 S7        30.07R
FORT KNOX      CLOUDY    68  62  79 S7        30.06R
$$

KYZ035>037-039>044-047>052-055>060-089>105-260300-
NORTHEAST KENTUCKY

CITY           SKY/WX    TMP DP  RH WIND       PRES   REMARKS
LEXINGTON      MOCLDY    72  62  71 S9        30.11R
COVINGTON      CLOUDY    73  64  73 S7        30.06R
FRANKFORT      CLOUDY    73  62  68 S8        30.08R
$$

KYZ054-064>069-076>088-106>120-260300-
SOUTHEAST KENTUCKY

CITY           SKY/WX    TMP DP  RH WIND       PRES   REMARKS
JACKSON        CLOUDY    71  60  68 CALM      30.15S
LONDON         CLOUDY    71  65  81 CALM      30.14F
SOMERSET       NOT AVBL
MIDDLESBORO    MOCLDY    70  64  82 CALM      30.17F
MONTICELLO     LGT RAIN  67  66  97 NE8       30.15F
$$





USA.gov is the U.S. government's official web portal to all federal, state and local government web resources and services.